SES-10

operational
NORAD ID: 42432 Int'l Des: 2017-017 Owner: SESSL Country: UK
HEOCIRCULARGSOGEO

About SES-10

Description loading...

Live Position

Loading 3D Globe...

Upcoming Passes

Altitude History

Altitude vs Time

uPlot chart will show altitude changes over time

Two-Line Element Set

1 42432U 17017A 26061.14664334 -.00000291 00000-0 00000+0 0 9999
2 42432 0.0170 73.5530 0002708 259.3883 172.8742 1.00279278 32689
Epoch: Mar 2, 2026 • Age: 43 hours

Current Status

Altitude 35776.5 km
Velocity 3.08 km/s
Sub-Earth Point -0.03°S, 66.82°W
Launch Date Mar 30, 2017
Age 8.9 years
Type communications

Technical Details

Classification Payload
Mass 5300.00 kg
Dry Mass 3000.00 kg
Total Mass 5300.00 kg
Length 7.00 m
Diameter 3.30 m
Span 35.00 m
Shape Box + 2 pan
Manufacturer ADSB
Bus Type Eurostar 3000
Phase Status In Orbit
Owner/State SESSL/UK

Large Constellations

Loading constellations...